STARLINK-32448 (62206 NORAD) Tracking and Keplerian Element Data

This shows tracking and keplerian element data for the satellite.

Feedback or suggestion? Click here.




ElementValue
Catalog62206
NameSTARLINK-32448
Epoch Orbit946
Epoch Day34.29436549
Epoch Year2025
RAAN7.6171
Inclination43.0034
Eccentricity0.0001374
Argument of Perigee263.3938
Mean Anonmoly96.6759
Mean Motion15.32095633
Decay Rate-4.63E-06
L11 62206U 24229Q 25034.29436549 -.00000463 00000+0 -59237-5 0 9996
L22 62206 43.0034 7.6171 0001374 263.3938 96.6759 15.32095633 9461



Live tracking and technical data element details for STARLINK-32448 (NORAD 62206). STARLINK-32448 can be tracked NOW for your location showing map with azimuth and elevation plus other details from your city location.







IsCatalogInMostPopularTable: catalog: 62206, numindb: 13
Update: records affected: 1



GetName: 62206 STARLINK-32448

Hit Count: updated at: Sat, 24 May 2025 16:10:56 GMT